DateTime,DeltaTime,Roll,TargetAngle,Position,Power
2022-06-03 10:53:02.132,0,-0.52,-5.16,0,18.12
2022-06-03 10:53:02.246,0.114000588655472,-0.59,-5.84,0,22.68
2022-06-03 10:53:02.361,0.228996947407722,-0.55,-5.17,2,20.27
2022-06-03 10:53:02.475,0.342997536063194,-0.44,-4.46,5,28.07
2022-06-03 10:53:02.586,0.454000756144524,-0.19,-2.94,8,34.38
2022-06-03 10:53:02.701,0.568997114896774,0.17,-1.09,10,38.92
2022-06-03 10:53:02.815,0.682997703552246,-0.32,-6.67,10,76.16
2022-06-03 10:53:02.930,0.797994062304497,-0.31,-4.42,6,50.27
2022-06-03 10:53:03.045,0.913000479340553,-0.11,-2.84,3,25.3
2022-06-03 10:53:03.159,1.02700106799603,-0.2,-4.48,1,26.66
2022-06-03 10:53:03.274,1.14199742674828,-0.26,-4.52,0,19.31
2022-06-03 10:53:03.389,1.25699378550053,-0.18,-3.65,1,13
2022-06-03 10:53:03.503,1.370994374156,-0.25,-4.6,5,25.57
2022-06-03 10:53:03.618,1.48600079119205,-0.12,-3.17,7,36.36
2022-06-03 10:53:03.733,1.60099714994431,0.35,0.04,8,27.69
2022-06-03 10:53:03.847,1.71499773859978,-0.12,-5.88,9,64.56
2022-06-03 10:53:03.962,1.82999409735203,0.1,-1.99,7,36.79
2022-06-03 10:53:04.078,1.94599628448486,0.21,-2.04,4,31.83
2022-06-03 10:53:04.191,2.05900110304356,-0.01,-4.32,1,31.59
2022-06-03 10:53:04.302,2.16999426484108,-0.09,-4.03,0,16.84
2022-06-03 10:53:04.416,2.28399485349655,0.03,-2.69,1,9.91
2022-06-03 10:53:04.531,2.39900127053261,0.1,-2.63,4,17.92
2022-06-03 10:53:04.646,2.51399762928486,0.0600000000000001,-3.32,5,35.48
2022-06-03 10:53:04.761,2.62899398803711,-0.23,-5.47,9,47.08
2022-06-03 10:53:04.875,2.74299457669258,-0.1,-3.14,9,47.03
2022-06-03 10:53:04.991,2.85899676382542,-0.18,-4.37,8,50.94
2022-06-03 10:53:05.105,2.97299735248089,-0.2,-4.1,4,43
2022-06-03 10:53:05.219,3.08699794113636,-0.23,-4.37,2,27.12
2022-06-03 10:53:05.334,3.20199429988861,-0.35,-5.14,1,26.63
2022-06-03 10:53:05.449,3.31700071692467,-0.3,-4.24,1,19.38
2022-06-03 10:53:05.563,3.43100130558014,-0.17,-3.36,2,17.92
2022-06-03 10:53:05.678,3.54599766433239,0.0700000000000001,-2.06,6,18
2022-06-03 10:53:05.793,3.66099402308464,0.43,-0.14,7,29.17
2022-06-03 10:53:05.907,3.77499461174011,0.48,-1.38,9,38.19
2022-06-03 10:53:06.018,3.88599783182144,0.35,-2.59,8,52.12
2022-06-03 10:53:06.132,3.99999842047691,0.43,-1.42,5,31.94
2022-06-03 10:53:06.247,4.11499477922916,0.35,-2.35,3,25.28
2022-06-03 10:53:06.362,4.23000119626522,0.18,-3.44,0,24.09
2022-06-03 10:53:06.477,4.34499755501747,0.27,-1.91,0,3.23
2022-06-03 10:53:06.592,4.45999391376972,0.37,-1.49,2,7.27
2022-06-03 10:53:06.706,4.57399450242519,0.0700000000000001,-4.42,5,32.61
2022-06-03 10:53:06.821,4.68900091946125,0.14,-2.52,7,32.21
2022-06-03 10:53:06.935,4.80300150811672,0.17,-2.58,10,41.77
2022-06-03 10:53:07.050,4.91799786686897,0.33,-1.38,9,48.97
2022-06-03 10:53:07.165,5.03299422562122,-0.12,-5.79,7,59.04
2022-06-03 10:53:07.280,5.14800064265728,0.02,-2.64,3,28.85
2022-06-03 10:53:07.394,5.26200123131275,-0.01,-3.48,1,20.67
2022-06-03 10:53:07.509,5.376997590065,-0.16,-4.56,0,20.8
2022-06-03 10:53:07.624,5.49199394881725,-0.0499999999999999,-3.06,1,9.98
2022-06-03 10:53:07.734,5.6020013988018,-0.1,-3.88,4,22.67
2022-06-03 10:53:07.849,5.71699775755405,-0.01,-2.98,7,31.25
2022-06-03 10:53:07.963,5.83099834620953,-0.13,-4.31,8,50.78
2022-06-03 10:53:08.078,5.94599470496178,-0.02,-2.91,10,39.77
2022-06-03 10:53:08.192,6.05999529361725,-0.14,-4.37,7,58.58
2022-06-03 10:53:08.308,6.17599748075008,-0.24,-4.66,4,39.5
2022-06-03 10:53:08.423,6.29099383950233,-0.39,-5.47,2,33.13
2022-06-03 10:53:08.537,6.40499442815781,-0.47,-5.38,0,26.45
2022-06-03 10:53:08.652,6.52000084519386,-0.36,-4.19,0,13.89
2022-06-03 10:53:08.766,6.63400143384933,-0.22,-3.51,3,15.05
2022-06-03 10:53:08.881,6.74899779260159,-0.37,-5.37,6,40.6
2022-06-03 10:53:08.996,6.86399415135384,0,-1.71,7,31.67
2022-06-03 10:53:09.111,6.97900056838989,-0.01,-3.45,10,46.93
2022-06-03 10:53:09.225,7.09300115704536,-0.0599999999999999,-3.73,8,54.99
2022-06-03 10:53:09.340,7.20799751579762,0.03,-2.85,5,36.28
2022-06-03 10:53:09.454,7.32199810445309,-0.1,-4.28,2,33.18
2022-06-03 10:53:09.565,7.43300132453442,-0.16,-4.16,0,20.51
2022-06-03 10:53:09.679,7.54700191318989,-0.16,-3.95,0,14.08
2022-06-03 10:53:09.794,7.66199827194214,-0.1,-3.39,2,14.56
2022-06-03 10:53:09.910,7.77800045907497,-0.08,-3.59,5,26.58
2022-06-03 10:53:10.023,7.89099521934986,0.19,-1.45,7,28.53
2022-06-03 10:53:10.138,8.00600163638592,0.67,1.25,10,24.46
2022-06-03 10:53:10.253,8.12099799513817,0.0700000000000001,-5.71,9,75.77
2022-06-03 10:53:10.368,8.23599435389042,0.29,-1.31,6,30.95
2022-06-03 10:53:10.483,8.35100077092648,0.4,-1.38,3,24.35
2022-06-03 10:53:10.597,8.46500135958195,0.13,-4,0,26.97
2022-06-03 10:53:10.712,8.5799977183342,0.03,-3.69,0,11.54
2022-06-03 10:53:10.827,8.69499407708645,0.12,-2.45,1,10
2022-06-03 10:53:10.941,8.80899466574192,0.17,-2.53,4,17.28
2022-06-03 10:53:11.056,8.92400108277798,0.41,-0.76,7,22.34
2022-06-03 10:53:11.170,9.03800167143345,0.61,-0.18,10,33.24
2022-06-03 10:53:11.285,9.1529980301857,0.59,-1.27,9,51.19
2022-06-03 10:53:11.395,9.26299542188644,0.52,-1.68,7,38.63
2022-06-03 10:53:11.510,9.3780018389225,0.63,-0.57,4,24.83
2022-06-03 10:53:11.625,9.49299819767475,0.5,-1.99,2,21.74
2022-06-03 10:53:11.740,9.607994556427,0.42,-2.14,3,15.06
2022-06-03 10:53:11.854,9.72199514508247,0.48,-1.27,0,18.53
2022-06-03 10:53:11.969,9.83700156211853,0.52,-1.27,3,3.73
2022-06-03 10:53:12.084,9.95199792087078,0.61,-0.68,6,19.87
2022-06-03 10:53:12.199,10.066994279623,0.82,0.6,8,25.64
2022-06-03 10:53:12.313,10.1809948682785,1.04,1.47,9,29.5
2022-06-03 10:53:12.429,10.2969970554113,0.61,-2.96,9,55.82
2022-06-03 10:53:12.542,10.41000187397,0.68,-0.53,5,32
2022-06-03 10:53:12.657,10.5249982327223,0.85,0.55,2,10.62
2022-06-03 10:53:12.772,10.6399945914745,0.66,-1.73,0,14.1
2022-06-03 10:53:12.886,10.75399518013,0.55,-1.77,0,5.59
2022-06-03 10:53:13.001,10.8690015971661,0.64,-0.58,0,2.37
2022-06-03 10:53:13.111,10.9789989888668,0.7,-0.49,5,3.52
2022-06-03 10:53:13.226,11.0939953476191,1.02,1.84,9,17.06
2022-06-03 10:53:13.341,11.2090017646551,0.76,-1.66,9,51.37
2022-06-03 10:53:13.457,11.3249938935041,0.59,-1.89,9,40.49
2022-06-03 10:53:13.570,11.4379987120628,0.51,-1.81,5,40.81
2022-06-03 10:53:13.686,11.5540008991957,0.51,-1.44,4,20
2022-06-03 10:53:13.800,11.6680014878511,0.35,-2.74,1,27.83
2022-06-03 10:53:13.914,11.7820020765066,0.3,-2.47,1,11.71
2022-06-03 10:53:14.029,11.8969984352589,0.44,-1.04,0,9.18
2022-06-03 10:53:14.144,12.0119947940111,0.46,-1.59,4,8.96
2022-06-03 10:53:14.259,12.1270012110472,0.24,-3.38,7,38.67
2022-06-03 10:53:14.373,12.2410017997026,0.32,-1.83,10,39
2022-06-03 10:53:14.488,12.3559981584549,0.32,-2.12,9,54.36
2022-06-03 10:53:14.603,12.4709945172071,0.35,-1.93,7,38.77
2022-06-03 10:53:14.713,12.5810019671917,0.24,-2.92,3,36.29
2022-06-03 10:53:14.827,12.6950025558472,0.2,-2.73,2,17.58
2022-06-03 10:53:14.943,12.8109946846962,0.18,-2.81,0,18.95
2022-06-03 10:53:15.058,12.9260011017323,0.18,-2.67,0,9.95
2022-06-03 10:53:15.172,13.0400016903877,0.19,-2.55,3,12.35
2022-06-03 10:53:15.286,13.1540022790432,0.11,-3.32,6,31.61
2022-06-03 10:53:15.401,13.2689986377954,0.21,-2.08,9,36.07
2022-06-03 10:53:15.516,13.3839949965477,-0.13,-5.28,9,65.54
2022-06-03 10:53:15.631,13.4990014135838,-0.0599999999999999,-3.27,8,42.63
2022-06-03 10:53:15.745,13.6130020022392,0.03,-2.86,6,39.35
2022-06-03 10:53:15.861,13.7289941310883,0,-3.46,3,35.2
2022-06-03 10:53:15.975,13.8429947197437,-0.21,-4.99,1,30.56
2022-06-03 10:53:16.089,13.9569953083992,-0.21,-4.14,0,18.96
2022-06-03 10:53:16.204,14.0720017254353,-0.13,-3.42,2,14.55
2022-06-03 10:53:16.319,14.1869980841875,-0.01,-2.87,5,24.38
2022-06-03 10:53:16.433,14.300998672843,-0.18,-4.74,8,47.29
2022-06-03 10:53:16.544,14.4120018929243,0.09,-1.85,9,36.48
2022-06-03 10:53:16.659,14.5269982516766,0.02,-3.55,10,50.76
2022-06-03 10:53:16.773,14.640998840332,-0.03,-3.68,7,51.99
2022-06-03 10:53:16.888,14.7559951990843,0.0800000000000001,-2.53,3,29.74
2022-06-03 10:53:17.003,14.8710016161203,-0.1,-4.5,1,25.88
2022-06-03 10:53:17.118,14.9859979748726,-0.13,-3.94,0,16.45
2022-06-03 10:53:17.232,15.0999985635281,0,-2.74,1,9.25
2022-06-03 10:53:17.347,15.2149949222803,0.02,-3.21,4,19.7
2022-06-03 10:53:17.462,15.3300013393164,0.31,-0.92,7,21.74
2022-06-03 10:53:17.576,15.4440019279718,0.47,-0.86,8,35.98
2022-06-03 10:53:17.691,15.5589982867241,0.48,-1.55,10,41.3
2022-06-03 10:53:17.805,15.6729988753796,0.46,-1.69,7,50.66
2022-06-03 10:53:17.920,15.7879952341318,0.34,-2.6,4,32.68
2022-06-03 10:53:18.035,15.9030016511679,0.38,-1.76,1,17.09
2022-06-03 10:53:18.149,16.0170022398233,0.34,-2.2,0,9.88
2022-06-03 10:53:18.261,16.1290012300014,0.39,-1.73,0,6.13
2022-06-03 10:53:18.374,16.2419959902763,0.4,-1.79,3,8.55
2022-06-03 10:53:18.489,16.3570024073124,0.32,-2.48,5,27.1
2022-06-03 10:53:18.603,16.4709929376841,0.49,-0.74,8,24.07
2022-06-03 10:53:18.719,16.5869951248169,0.03,-5.23,10,61.71
2022-06-03 10:53:18.833,16.7009957134724,0.11,-2.62,8,45.77
2022-06-03 10:53:18.948,16.8160021305084,0.26,-1.72,7,32.09
2022-06-03 10:53:19.063,16.9309984892607,0.15,-3.25,3,39.41
2022-06-03 10:53:19.177,17.0449990779161,-0.0399999999999999,-4.32,1,25.01
2022-06-03 10:53:19.292,17.1599954366684,-0.0599999999999999,-3.65,0,16.14
2022-06-03 10:53:19.407,17.2750018537045,0.05,-2.62,3,9.91
2022-06-03 10:53:19.522,17.3899982124567,0.12,-2.57,6,27.59
2022-06-03 10:53:19.636,17.5039988011122,0.21,-2.21,8,37.45
2022-06-03 10:53:19.751,17.6189951598644,0.33,-1.6,10,41.68
2022-06-03 10:53:19.865,17.7329957485199,0.21,-3.03,9,57.9
2022-06-03 10:53:19.980,17.848002165556,0.0700000000000001,-3.7,6,46.44
2022-06-03 10:53:20.091,17.9589953273535,0.1,-2.8,3,27.38
2022-06-03 10:53:20.206,18.0740017443895,-0.02,-3.93,1,23.91
2022-06-03 10:53:20.320,18.188002333045,-0.08,-3.91,0,16.9
2022-06-03 10:53:20.435,18.3029986917973,0.13,-1.93,1,5.1
2022-06-03 10:53:20.550,18.4179950505495,0.15,-2.65,4,17.79
2022-06-03 10:53:20.663,18.5309998691082,-0.0599999999999999,-4.48,7,40.06
2022-06-03 10:53:20.778,18.6459962278605,-0.02,-3.26,9,43.39
2022-06-03 10:53:20.893,18.7610026448965,-0.0499999999999999,-3.65,9,53.95
2022-06-03 10:53:21.008,18.8759990036488,-0.08,-3.71,7,46.99
2022-06-03 10:53:21.123,18.990995362401,-0.14,-4.11,4,38.92
2022-06-03 10:53:21.238,19.1060017794371,-0.26,-4.79,1,30.42
2022-06-03 10:53:21.352,19.2200023680925,-0.25,-4.24,0,16.52
2022-06-03 10:53:21.467,19.3349987268448,-0.2,-3.81,0,14.47
2022-06-03 10:53:21.582,19.449995085597,-0.22,-4.25,4,18.94
2022-06-03 10:53:21.696,19.5639956742525,-0.15,-3.57,6,35.32
2022-06-03 10:53:21.812,19.6799978613853,0.0800000000000001,-2.07,9,34.17
2022-06-03 10:53:21.921,19.7889994829893,0.52,0.55,10,36.15
2022-06-03 10:53:22.036,19.9039958417416,-0.13,-6.69,8,77.64
2022-06-03 10:53:22.151,20.0190022587776,0.02,-2.61,4,31.21
2022-06-03 10:53:22.265,20.1329927891493,0.1,-2.62,2,20.16
2022-06-03 10:53:22.381,20.2489949762821,-0.03,-3.97,0,22.75
2022-06-03 10:53:22.495,20.3629955649376,-0.0399999999999999,-3.54,0,12
2022-06-03 10:53:22.610,20.4780019819736,0.05,-2.76,2,11.61
2022-06-03 10:53:22.724,20.5920025706291,0.0800000000000001,-2.9,6,23.62
2022-06-03 10:53:22.839,20.7069989293814,0.39,-0.5,8,29.22
2022-06-03 10:53:22.954,20.8219952881336,-0.14,-6.2,10,66.25
2022-06-03 10:53:23.068,20.9359958767891,0.13,-1.69,9,39.86
2022-06-03 10:53:23.183,21.0510022938251,0.14,-2.73,5,44.4
2022-06-03 10:53:23.298,21.1659986525774,0.04,-3.61,2,29.84
2022-06-03 10:53:23.413,21.2809950113297,-0.0499999999999999,-3.95,0,21.42
2022-06-03 10:53:23.526,21.3939998298883,-0.11,-3.99,0,15.63
2022-06-03 10:53:23.642,21.5100020170212,0.01,-2.79,2,12.58
2022-06-03 10:53:23.752,21.6199994087219,0.09,-2.62,5,23.54
2022-06-03 10:53:23.867,21.7349957674742,-0.09,-4.46,8,45.8
2022-06-03 10:53:23.982,21.8500021845102,0.23,-1.07,10,32.95
2022-06-03 10:53:24.096,21.9639927148819,0.12,-3.37,10,55.84
2022-06-03 10:53:24.211,22.078999131918,0.0600000000000001,-3.33,7,49.15
2022-06-03 10:53:24.326,22.1939954906702,0.21,-1.88,1,26.96
2022-06-03 10:53:24.441,22.3090019077063,0.02,-4.07,0,14.52
2022-06-03 10:53:24.556,22.4239982664585,-0.08,-4.08,0,15.05
2022-06-03 10:53:24.669,22.5369930267334,0.0600000000000001,-2.46,0,8.62
2022-06-03 10:53:24.784,22.6519994437695,0.0700000000000001,-3.08,3,14.03
2022-06-03 10:53:24.899,22.7669958025217,0.11,-2.77,8,26.99
2022-06-03 10:53:25.014,22.8820022195578,0.31,-1.26,9,41.45
2022-06-03 10:53:25.129,22.99699857831,0.27,-2.49,12,48.89
2022-06-03 10:53:25.244,23.1119949370623,0.49,-0.53,8,47.64
2022-06-03 10:53:25.358,23.2259955257177,0.3,-3.11,4,39.14
2022-06-03 10:53:25.468,23.3359929174185,0.28,-2.38,1,18.38
2022-06-03 10:53:25.583,23.4509993344545,0.29,-2.18,0,9.13
2022-06-03 10:53:25.697,23.56499992311,0.23,-2.73,0,11.38
2022-06-03 10:53:25.813,23.6810021102428,0.23,-2.49,2,11.04
2022-06-03 10:53:25.927,23.7949926406145,0.17,-2.97,6,23.99
2022-06-03 10:53:26.041,23.90899322927,0.23,-2.21,9,37.38
2022-06-03 10:53:26.157,24.0249954164028,0.12,-3.37,10,54.67
2022-06-03 10:53:26.272,24.1400018334389,-0.29,-6.19,9,64.76
2022-06-03 10:53:26.386,24.2540024220943,-0.13,-3.09,6,39.25
2022-06-03 10:53:26.501,24.3689987808466,-0.1,-3.61,2,33.34
2022-06-03 10:53:26.615,24.4829993695021,-0.34,-5.59,0,27.35
2022-06-03 10:53:26.729,24.5969999581575,-0.41,-5.2,-2,18.76
2022-06-03 10:53:26.844,24.7119963169098,-0.33,-4.21,1,7.36
2022-06-03 10:53:26.959,24.826992675662,-0.25,-3.92,3,25.1
2022-06-03 10:53:27.074,24.9419990926981,0.03,-1.94,7,22.07
2022-06-03 10:53:27.189,25.0569954514503,-0.11,-4.41,9,54.84
2022-06-03 10:53:27.299,25.1669928431511,-0.21,-4.53,10,52.75
2022-06-03 10:53:27.414,25.2819992601871,-0.45,-6.03,7,62.47
2022-06-03 10:53:27.528,25.3959998488426,-0.27,-3.51,3,31.53
2022-06-03 10:53:27.643,25.5109962075949,-0.37,-5.18,1,28.1
2022-06-03 10:53:27.758,25.6260026246309,-0.43,-5.15,0,21.74
2022-06-03 10:53:27.872,25.7399931550026,-0.31,-3.94,0,13.91
2022-06-03 10:53:27.987,25.8549995720387,-0.25,-3.97,3,17.33
2022-06-03 10:53:28.102,25.9699959307909,-0.55,-6.7,7,46.34
2022-06-03 10:53:28.216,26.0839965194464,-0.44,-4.51,9,44.84
2022-06-03 10:53:28.331,26.1989928781986,-0.4,-4.62,9,54.08
2022-06-03 10:53:28.446,26.3139992952347,-0.49,-5.51,9,54.71
2022-06-03 10:53:28.561,26.4289956539869,-0.65,-6.48,6,58.45
2022-06-03 10:53:28.675,26.5429962426424,-0.71,-6.18,3,40.64
2022-06-03 10:53:28.790,26.6580026596785,-0.74,-6.19,0,31.1
2022-06-03 10:53:28.904,26.7719931900501,-0.83,-6.79,0,23.88
2022-06-03 10:53:29.015,26.8829964101315,-0.77,-5.95,1,23.44
2022-06-03 10:53:29.129,26.9969969987869,-0.76,-6.08,5,30.71
2022-06-03 10:53:29.244,27.1119933575392,-0.53,-4.3,7,41
2022-06-03 10:53:29.359,27.2269997745752,0.0700000000000001,-0.47,10,29.8
2022-06-03 10:53:29.474,27.3419961333275,-0.44,-7.17,9,81.42
2022-06-03 10:53:29.589,27.4570025503635,-0.18,-2.88,7,36.89
2022-06-03 10:53:29.704,27.5719989091158,-0.03,-2.79,1,34.49
2022-06-03 10:53:29.818,27.6859994977713,-0.22,-4.94,2,18.85
2022-06-03 10:53:29.933,27.8009958565235,-0.32,-4.93,0,29.39
2022-06-03 10:53:30.047,27.914996445179,-0.26,-4.05,1,14.32
2022-06-03 10:53:30.162,28.0299928039312,-0.12,-3.14,3,18.93
2022-06-03 10:53:30.277,28.1449992209673,-0.03,-3.04,6,28.71
2022-06-03 10:53:30.392,28.2599955797195,-0.29,-5.55,8,54.32
2022-06-03 10:53:30.506,28.373996168375,-0.3,-4.52,9,47.47
2022-06-03 10:53:30.620,28.4879967570305,-0.42,-5.43,10,55.78
2022-06-03 10:53:30.736,28.6039989441633,-0.35,-4.27,5,52.48
2022-06-03 10:53:30.846,28.7139963358641,-0.39,-5,3,31.31
2022-06-03 10:53:30.959,28.8270011544228,-0.54,-5.95,1,32.58
2022-06-03 10:53:31.075,28.9429932832718,-0.45,-4.63,1,18.14
2022-06-03 10:53:31.189,29.0569938719273,-0.34,-4.06,2,20.19
2022-06-03 10:53:31.304,29.1720002889633,-0.49,-5.82,5,35.2
2022-06-03 10:53:31.419,29.2869966477156,-0.42,-4.55,7,40.96
2022-06-03 10:53:31.533,29.400997236371,-0.33,-4.14,7,47.51
2022-06-03 10:53:31.649,29.5169994235039,-0.16,-3.19,8,36.36
2022-06-03 10:53:31.763,29.6310000121593,-0.63,-7.69,6,66.05
2022-06-03 10:53:31.878,29.7459963709116,-0.48,-4.48,4,31.87
2022-06-03 10:53:31.992,29.8599969595671,-0.51,-5.33,3,33.88
2022-06-03 10:53:32.107,29.9749933183193,-0.66,-6.45,2,36.86
2022-06-03 10:53:32.222,30.0899997353554,-0.62,-5.46,2,27.6
2022-06-03 10:53:32.337,30.2049960941076,-0.54,-4.98,3,28.47
2022-06-03 10:53:32.451,30.3189966827631,-0.4,-4.19,7,30.82
2022-06-03 10:53:32.562,30.4299999028444,-0.34,-4.35,7,52.02
